Weather in Urusovo

Russia / Republic of Mordovia     55°01′47″N   46°16′01″E
temp.,
°C
wind,
m/s
gust,
m/s
humid.,
%
clouds,
%
prec.,
mm/h
press.,
hPa
HPBL,
m
17 october, sun
sun1700:00+7sw61459100 0.0 1017481
03:00+7sw6136488 0.0 1016477
06:00+7sw5126311 0.0 1016440
09:00+9sw596045 0.0 1016614
12:00+11sw695675 0.0 10161290
15:00+12wsw585195 0.0 10141440
18:00+10wsw3860100 0.0 1015327
21:00+8sw3773100 0.0 1014143
18 october, mon
mon1800:00+6sw34836 0.0 101465
03:00+5sw338947 0.0 101355
06:00+4sw3491100 0.0 101383
09:00+6sw4777100 0.0 1012297
12:00+9sw5763100 0.0 1011907
15:00+10wsw6957100 0.0 10091542
18:00+8sw5106296 0.1 1009732
21:00+7wsw51168100 0.1 1009534
19 october, tue
tue1900:00+5w5982100 0.0 1010670
03:00+3nw2379100 0.0 101184
06:00+3w2479100 0.0 1012121
09:00+4w3473100 0.0 1012374
12:00+6wnw3464100 0.0 1012874
15:00+6nw3359100 0.0 1012935
18:00+5nnw3364100 0.0 1012589
21:00+3nw1173100 0.0 101310
20 october, wed
wed2000:00+1wnw359065 0.0 1013149
03:00+1nnw3588100 0.0 1014462
06:00+2nnw4689100 0.0 1015403
09:00+2nnw567797 0.1 1017876
12:00+3nnw4659100 0.1 10181146
15:00+4nw5652100 0.1 10181285
18:00+3nw576583 0.1 1020779
21:000wnw36755 0.1 1021166
21 october, thu
thu2100:00−2wnw36795 0.0 1022121
03:00−3w24839 0.0 102381
06:00−3sw358020 0.0 1022126
09:00−1sw596899 0.0 1021401
12:00+4ssw71047100 0.0 1019695
15:00+4ssw7134983 0.0 1017713
18:00+4ssw7155098 0.0 1015626
21:00+5ssw81754100 0.0 1013657